Time,TemperatureF,DewpointF,PressureIn,WindDirection,WindDirectionDegrees,WindSpeedMPH,WindSpeedGustMPH,Humidity,HourlyPrecipIn,Conditions,Clouds,dailyrainin,SoftwareType,DateUTC
2015-09-04 00:03:00,62.0,48.4,29.77,South,186,0.0,0.0,61,0.00,,,0.00,Wunderground v.1.15,2015-09-04 07:03:00,
2015-09-04 00:09:00,61.8,48.2,29.77,South,186,0.0,0.0,61,0.00,,,0.00,Wunderground v.1.15,2015-09-04 07:09:00,
2015-09-04 00:14:00,61.6,48.0,29.77,South,186,0.0,0.0,61,0.00,,,0.00,Wunderground v.1.15,2015-09-04 07:14:00,
2015-09-04 00:19:00,61.5,48.4,29.77,South,186,0.0,0.0,62,0.00,,,0.00,Wunderground v.1.15,2015-09-04 07:19:00,
2015-09-04 00:25:00,61.3,48.2,29.77,South,186,0.0,0.0,62,0.00,,,0.00,Wunderground v.1.15,2015-09-04 07:25:00,
2015-09-04 00:31:00,61.2,48.1,29.78,South,186,0.0,0.0,62,0.00,,,0.00,Wunderground v.1.15,2015-09-04 07:31:00,
2015-09-04 00:36:00,61.0,48.3,29.78,South,186,0.0,0.0,63,0.00,,,0.00,Wunderground v.1.15,2015-09-04 07:36:00,
2015-09-04 00:42:00,60.8,48.1,29.78,South,186,0.0,0.0,63,0.00,,,0.00,Wunderground v.1.15,2015-09-04 07:42:00,
2015-09-04 00:47:00,60.7,48.0,29.78,South,186,0.0,0.0,63,0.00,,,0.00,Wunderground v.1.15,2015-09-04 07:47:00,
2015-09-04 00:52:00,60.6,47.9,29.78,South,186,0.0,0.0,63,0.00,,,0.00,Wunderground v.1.15,2015-09-04 07:52:00,
2015-09-04 00:58:00,60.4,48.2,29.77,South,186,0.0,0.0,64,0.00,,,0.00,Wunderground v.1.15,2015-09-04 07:58:00,
2015-09-04 01:03:00,60.2,47.6,29.78,South,186,0.0,0.0,63,0.00,,,0.00,Wunderground v.1.15,2015-09-04 08:03:00,
2015-09-04 01:09:00,60.1,47.9,29.77,South,186,0.0,0.0,64,0.00,,,0.00,Wunderground v.1.15,2015-09-04 08:09:00,
2015-09-04 01:14:00,60.0,47.8,29.77,South,186,0.0,0.0,64,0.00,,,0.00,Wunderground v.1.15,2015-09-04 08:14:00,
2015-09-04 01:19:00,59.8,47.6,29.77,South,186,0.0,0.0,64,0.00,,,0.00,Wunderground v.1.15,2015-09-04 08:19:00,
2015-09-04 01:25:00,59.7,47.5,29.77,South,186,0.0,0.0,64,0.00,,,0.00,Wunderground v.1.15,2015-09-04 08:25:00,
2015-09-04 01:31:00,59.5,47.3,29.77,South,186,0.0,0.0,64,0.00,,,0.00,Wunderground v.1.15,2015-09-04 08:31:00,
2015-09-04 01:36:00,59.5,47.7,29.77,South,186,0.0,0.0,65,0.00,,,0.00,Wunderground v.1.15,2015-09-04 08:36:00,
2015-09-04 01:41:00,59.4,47.6,29.77,South,186,0.0,0.0,65,0.00,,,0.00,Wunderground v.1.15,2015-09-04 08:41:00,
2015-09-04 01:47:00,59.2,47.8,29.77,South,186,0.0,0.0,66,0.00,,,0.00,Wunderground v.1.15,2015-09-04 08:47:00,
2015-09-04 01:52:00,59.0,47.7,29.77,South,186,0.0,0.0,66,0.00,,,0.00,Wunderground v.1.15,2015-09-04 08:52:00,
2015-09-04 01:58:00,58.8,47.5,29.77,South,186,0.0,0.0,66,0.00,,,0.00,Wunderground v.1.15,2015-09-04 08:58:00,
2015-09-04 02:03:00,58.6,47.3,29.77,South,186,0.0,0.0,66,0.00,,,0.00,Wunderground v.1.15,2015-09-04 09:03:00,
2015-09-04 02:08:00,58.5,47.2,29.77,South,186,0.0,0.0,66,0.00,,,0.00,Wunderground v.1.15,2015-09-04 09:08:00,
2015-09-04 02:13:00,58.5,47.6,29.77,South,186,0.0,0.0,67,0.00,,,0.00,Wunderground v.1.15,2015-09-04 09:13:00,
2015-09-04 02:18:00,58.5,48.4,29.76,South,186,0.0,0.0,69,0.00,,,0.00,Wunderground v.1.15,2015-09-04 09:18:00,
2015-09-04 02:23:00,58.2,47.7,29.76,South,186,0.0,0.0,68,0.00,,,0.00,Wunderground v.1.15,2015-09-04 09:23:00,
2015-09-04 02:28:00,58.0,47.5,29.76,South,186,0.0,0.0,68,0.00,,,0.00,Wunderground v.1.15,2015-09-04 09:28:00,
2015-09-04 02:33:00,57.7,47.2,29.76,South,186,0.0,0.0,68,0.00,,,0.00,Wunderground v.1.15,2015-09-04 09:33:00,
2015-09-04 02:38:00,57.5,47.4,29.76,South,186,0.0,0.0,69,0.00,,,0.00,Wunderground v.1.15,2015-09-04 09:38:00,
2015-09-04 02:43:00,57.4,47.3,29.76,South,186,0.0,0.0,69,0.00,,,0.00,Wunderground v.1.15,2015-09-04 09:43:00,
2015-09-04 02:48:00,57.2,47.1,29.76,South,186,0.0,0.0,69,0.00,,,0.00,Wunderground v.1.15,2015-09-04 09:48:00,
2015-09-04 02:53:00,57.0,47.3,29.76,South,186,0.0,0.0,70,0.00,,,0.00,Wunderground v.1.15,2015-09-04 09:53:00,
2015-09-04 02:58:00,56.8,47.1,29.76,South,186,0.0,0.0,70,0.00,,,0.00,Wunderground v.1.15,2015-09-04 09:58:00,
2015-09-04 03:03:00,56.7,47.8,29.76,South,186,0.0,0.0,72,0.00,,,0.00,Wunderground v.1.15,2015-09-04 10:03:00,
2015-09-04 03:08:00,56.6,46.9,29.76,South,186,0.0,0.0,70,0.00,,,0.00,Wunderground v.1.15,2015-09-04 10:08:00,
2015-09-04 03:13:00,56.4,47.1,29.76,South,186,0.0,0.0,71,0.00,,,0.00,Wunderground v.1.15,2015-09-04 10:13:00,
2015-09-04 03:18:00,56.3,47.0,29.76,South,186,0.0,0.0,71,0.00,,,0.00,Wunderground v.1.15,2015-09-04 10:18:00,
2015-09-04 03:20:00,56.3,47.0,29.76,South,186,0.0,0.0,71,0.00,,,0.00,Wunderground v.1.15,2015-09-04 10:20:00,
2015-09-04 03:21:00,56.2,46.9,29.76,South,186,0.0,0.0,71,0.00,,,0.00,Wunderground v.1.15,2015-09-04 10:21:00,
2015-09-04 03:23:00,56.2,46.9,29.76,South,186,0.0,0.0,71,0.00,,,0.00,Wunderground v.1.15,2015-09-04 10:23:00,
2015-09-04 03:27:00,56.1,46.8,29.76,South,186,0.0,0.0,71,0.00,,,0.00,Wunderground v.1.15,2015-09-04 10:27:00,
2015-09-04 03:32:00,55.9,46.6,29.76,South,186,0.0,0.0,71,0.00,,,0.00,Wunderground v.1.15,2015-09-04 10:32:00,
2015-09-04 03:37:00,55.8,46.5,29.76,South,186,0.0,0.0,71,0.00,,,0.00,Wunderground v.1.15,2015-09-04 10:37:00,
2015-09-04 03:43:00,55.6,46.3,29.76,South,186,0.0,0.0,71,0.00,,,0.00,Wunderground v.1.15,2015-09-04 10:43:00,
2015-09-04 03:47:00,55.6,46.3,29.76,South,186,0.0,0.0,71,0.00,,,0.00,Wunderground v.1.15,2015-09-04 10:47:00,
2015-09-04 03:52:00,55.5,46.2,29.76,South,186,0.0,0.0,71,0.00,,,0.00,Wunderground v.1.15,2015-09-04 10:52:00,
2015-09-04 03:58:00,55.5,46.2,29.76,South,186,0.0,0.0,71,0.00,,,0.00,Wunderground v.1.15,2015-09-04 10:58:00,
2015-09-04 04:03:00,55.4,46.5,29.76,South,186,0.0,0.0,72,0.00,,,0.00,Wunderground v.1.15,2015-09-04 11:03:00,
2015-09-04 04:08:00,55.4,46.5,29.76,South,186,0.0,0.0,72,0.00,,,0.00,Wunderground v.1.15,2015-09-04 11:08:00,
2015-09-04 04:13:00,55.3,46.4,29.76,South,186,0.0,0.0,72,0.00,,,0.00,Wunderground v.1.15,2015-09-04 11:13:00,
2015-09-04 04:17:00,55.2,46.0,29.76,South,186,0.0,0.0,71,0.00,,,0.00,Wunderground v.1.15,2015-09-04 11:17:00,
2015-09-04 04:22:00,55.1,45.9,29.76,South,186,0.0,0.0,71,0.00,,,0.00,Wunderground v.1.15,2015-09-04 11:22:00,
2015-09-04 04:28:00,55.0,45.8,29.76,South,186,0.0,0.0,71,0.00,,,0.00,Wunderground v.1.15,2015-09-04 11:28:00,
2015-09-04 04:33:00,54.9,45.7,29.76,South,186,0.0,0.0,71,0.00,,,0.00,Wunderground v.1.15,2015-09-04 11:33:00,
2015-09-04 04:38:00,54.8,45.6,29.76,South,186,0.0,0.0,71,0.00,,,0.00,Wunderground v.1.15,2015-09-04 11:38:00,
2015-09-04 04:43:00,54.6,45.8,29.76,South,186,0.0,0.0,72,0.00,,,0.00,Wunderground v.1.15,2015-09-04 11:43:00,
2015-09-04 04:48:00,54.5,45.3,29.76,South,186,0.0,0.0,71,0.00,,,0.00,Wunderground v.1.15,2015-09-04 11:48:00,
2015-09-04 04:53:00,54.4,45.6,29.76,South,186,0.0,0.0,72,0.00,,,0.00,Wunderground v.1.15,2015-09-04 11:53:00,
2015-09-04 04:58:00,54.3,45.5,29.77,South,186,0.0,0.0,72,0.00,,,0.00,Wunderground v.1.15,2015-09-04 11:58:00,
2015-09-04 05:03:00,54.2,45.4,29.76,South,186,0.0,0.0,72,0.00,,,0.00,Wunderground v.1.15,2015-09-04 12:03:00,
2015-09-04 05:08:00,54.1,45.3,29.77,South,186,0.0,0.0,72,0.00,,,0.00,Wunderground v.1.15,2015-09-04 12:08:00,
2015-09-04 05:13:00,54.1,45.3,29.77,South,186,0.0,0.0,72,0.00,,,0.00,Wunderground v.1.15,2015-09-04 12:13:00,
2015-09-04 05:18:00,54.1,45.3,29.77,South,186,0.0,0.0,72,0.00,,,0.00,Wunderground v.1.15,2015-09-04 12:18:00,
2015-09-04 05:23:00,54.0,45.5,29.77,South,186,0.0,0.0,73,0.00,,,0.00,Wunderground v.1.15,2015-09-04 12:23:00,
2015-09-04 05:28:00,54.0,45.5,29.77,South,186,0.0,0.0,73,0.00,,,0.00,Wunderground v.1.15,2015-09-04 12:28:00,
2015-09-04 05:33:00,54.0,45.5,29.77,South,186,0.0,0.0,73,0.00,,,0.00,Wunderground v.1.15,2015-09-04 12:33:00,
2015-09-04 05:38:00,54.0,45.5,29.77,South,186,0.0,0.0,73,0.00,,,0.00,Wunderground v.1.15,2015-09-04 12:38:00,
2015-09-04 05:43:00,54.0,45.5,29.77,South,186,0.0,0.0,73,0.00,,,0.00,Wunderground v.1.15,2015-09-04 12:43:00,
2015-09-04 05:48:00,54.0,45.5,29.77,South,186,0.0,0.0,73,0.00,,,0.00,Wunderground v.1.15,2015-09-04 12:48:00,
2015-09-04 05:53:00,54.1,45.6,29.77,South,186,0.0,0.0,73,0.00,,,0.00,Wunderground v.1.15,2015-09-04 12:53:00,
2015-09-04 05:58:00,54.2,45.7,29.77,South,186,0.0,0.0,73,0.00,,,0.00,Wunderground v.1.15,2015-09-04 12:58:00,
2015-09-04 06:03:00,54.2,45.7,29.77,South,186,0.0,0.0,73,0.00,,,0.00,Wunderground v.1.15,2015-09-04 13:03:00,
2015-09-04 06:08:00,54.3,45.8,29.77,South,186,0.0,0.0,73,0.00,,,0.00,Wunderground v.1.15,2015-09-04 13:08:00,
2015-09-04 06:13:00,54.4,45.9,29.78,South,186,0.0,0.0,73,0.00,,,0.00,Wunderground v.1.15,2015-09-04 13:13:00,
2015-09-04 06:18:00,54.4,45.9,29.78,South,186,0.0,0.0,73,0.00,,,0.00,Wunderground v.1.15,2015-09-04 13:18:00,
2015-09-04 06:23:00,54.5,46.0,29.78,South,186,0.0,0.0,73,0.00,,,0.00,Wunderground v.1.15,2015-09-04 13:23:00,
2015-09-04 06:28:00,54.5,46.4,29.78,South,186,0.0,0.0,74,0.00,,,0.00,Wunderground v.1.15,2015-09-04 13:28:00,
2015-09-04 06:33:00,54.6,46.5,29.78,South,186,0.0,0.0,74,0.00,,,0.00,Wunderground v.1.15,2015-09-04 13:33:00,
2015-09-04 06:38:00,54.7,46.6,29.78,South,186,0.0,0.0,74,0.00,,,0.00,Wunderground v.1.15,2015-09-04 13:38:00,
2015-09-04 06:43:00,54.8,46.7,29.79,South,186,0.0,0.0,74,0.00,,,0.00,Wunderground v.1.15,2015-09-04 13:43:00,
2015-09-04 06:48:00,54.9,46.8,29.79,South,186,0.0,0.0,74,0.00,,,0.00,Wunderground v.1.15,2015-09-04 13:48:00,
2015-09-04 06:53:00,55.0,46.5,29.79,South,186,0.0,0.0,73,0.00,,,0.00,Wunderground v.1.15,2015-09-04 13:53:00,
2015-09-04 06:58:00,55.1,47.0,29.79,South,181,0.0,5.0,74,0.00,,,0.00,Wunderground v.1.15,2015-09-04 13:58:00,
2015-09-04 07:03:00,55.4,47.2,29.79,South,181,0.0,0.0,74,0.00,,,0.00,Wunderground v.1.15,2015-09-04 14:03:00,
2015-09-04 07:08:00,55.9,47.4,29.79,South,180,0.0,0.0,73,0.00,,,0.00,Wunderground v.1.15,2015-09-04 14:08:00,
2015-09-04 07:13:00,56.3,47.4,29.79,South,180,0.0,0.0,72,0.00,,,0.00,Wunderground v.1.15,2015-09-04 14:13:00,
2015-09-04 07:18:00,56.6,47.3,29.79,South,180,0.0,0.0,71,0.00,,,0.00,Wunderground v.1.15,2015-09-04 14:18:00,
2015-09-04 07:23:00,57.0,47.7,29.79,South,180,0.0,0.0,71,0.00,,,0.00,Wunderground v.1.15,2015-09-04 14:23:00,
2015-09-04 07:28:00,57.5,47.8,29.79,South,180,0.0,0.0,70,0.00,,,0.00,Wunderground v.1.15,2015-09-04 14:28:00,
2015-09-04 07:33:00,58.0,47.9,29.79,South,180,0.0,0.0,69,0.00,,,0.00,Wunderground v.1.15,2015-09-04 14:33:00,
2015-09-04 07:38:00,58.5,48.0,29.79,South,180,0.0,0.0,68,0.00,,,0.00,Wunderground v.1.15,2015-09-04 14:38:00,
2015-09-04 07:43:00,59.0,48.1,29.79,South,176,0.0,5.0,67,0.00,,,0.00,Wunderground v.1.15,2015-09-04 14:43:00,
2015-09-04 07:48:00,59.3,47.9,29.79,South,176,0.0,5.0,66,0.00,,,0.00,Wunderground v.1.15,2015-09-04 14:48:00,
2015-09-04 07:53:00,59.8,48.4,29.79,South,176,0.0,4.0,66,0.00,,,0.00,Wunderground v.1.15,2015-09-04 14:53:00,
2015-09-04 07:58:00,60.4,49.0,29.79,South,178,0.0,4.0,66,0.00,,,0.00,Wunderground v.1.15,2015-09-04 14:58:00,
2015-09-04 08:03:00,61.1,49.2,29.80,South,175,0.0,5.0,65,0.00,,,0.00,Wunderground v.1.15,2015-09-04 15:03:00,
2015-09-04 08:08:00,61.6,49.3,29.80,South,169,0.0,6.0,64,0.00,,,0.00,Wunderground v.1.15,2015-09-04 15:08:00,
2015-09-04 08:13:00,61.9,49.2,29.80,SW,217,4.0,11.0,63,0.00,,,0.00,Wunderground v.1.15,2015-09-04 15:13:00,
2015-09-04 08:18:00,62.0,49.3,29.80,South,172,4.0,11.0,63,0.00,,,0.00,Wunderground v.1.15,2015-09-04 15:18:00,
2015-09-04 08:23:00,62.3,49.1,29.80,SW,215,7.0,12.0,62,0.00,,,0.00,Wunderground v.1.15,2015-09-04 15:23:00,
2015-09-04 08:28:00,62.6,49.0,29.80,SSW,198,6.0,12.0,61,0.00,,,0.00,Wunderground v.1.15,2015-09-04 15:28:00,
2015-09-04 08:33:00,62.6,49.0,29.80,South,178,5.0,10.0,61,0.00,,,0.00,Wunderground v.1.15,2015-09-04 15:33:00,
2015-09-04 08:38:00,62.9,49.2,29.80,SE,129,2.0,11.0,61,0.00,,,0.00,Wunderground v.1.15,2015-09-04 15:38:00,
2015-09-04 08:43:00,63.1,48.5,29.80,SSE,156,5.0,11.0,59,0.00,,,0.00,Wunderground v.1.15,2015-09-04 15:43:00,
2015-09-04 08:48:00,63.4,49.3,29.80,WSW,238,0.0,13.0,60,0.00,,,0.00,Wunderground v.1.15,2015-09-04 15:48:00,
2015-09-04 08:53:00,63.8,49.2,29.80,SSE,168,0.0,5.0,59,0.00,,,0.00,Wunderground v.1.15,2015-09-04 15:53:00,
2015-09-04 08:58:00,63.7,48.6,29.80,SSW,200,2.0,9.0,58,0.00,,,0.00,Wunderground v.1.15,2015-09-04 15:58:00,
2015-09-04 09:03:00,63.7,49.1,29.81,SW,215,1.0,10.0,59,0.00,,,0.00,Wunderground v.1.15,2015-09-04 16:03:00,
2015-09-04 09:08:00,63.8,48.7,29.81,SSE,148,0.0,11.0,58,0.00,,,0.00,Wunderground v.1.15,2015-09-04 16:08:00,
2015-09-04 09:13:00,64.0,48.9,29.81,South,182,0.0,10.0,58,0.00,,,0.00,Wunderground v.1.15,2015-09-04 16:13:00,
2015-09-04 09:19:00,64.2,48.6,29.81,SSE,162,4.0,10.0,57,0.00,,,0.00,Wunderground v.1.15,2015-09-04 16:19:00,
2015-09-04 09:24:00,64.4,48.8,29.81,SSE,167,7.0,9.0,57,0.00,,,0.00,Wunderground v.1.15,2015-09-04 16:24:00,
2015-09-04 09:29:00,64.6,48.5,29.81,South,171,4.0,13.0,56,0.00,,,0.00,Wunderground v.1.15,2015-09-04 16:29:00,
2015-09-04 09:34:00,64.8,48.7,29.81,SSW,211,6.0,6.0,56,0.00,,,0.00,Wunderground v.1.15,2015-09-04 16:34:00,
2015-09-04 09:39:00,64.7,48.6,29.81,SSE,149,6.0,11.0,56,0.00,,,0.00,Wunderground v.1.15,2015-09-04 16:39:00,
2015-09-04 09:44:00,65.3,48.7,29.81,SSE,164,2.0,6.0,55,0.00,,,0.00,Wunderground v.1.15,2015-09-04 16:44:00,
2015-09-04 09:49:00,66.1,49.0,29.81,SE,141,3.0,9.0,54,0.00,,,0.00,Wunderground v.1.15,2015-09-04 16:49:00,
2015-09-04 09:54:00,66.9,49.2,29.81,ESE,119,3.0,6.0,53,0.00,,,0.00,Wunderground v.1.15,2015-09-04 16:54:00,
2015-09-04 09:59:00,66.7,49.0,29.81,South,180,2.0,9.0,53,0.00,,,0.00,Wunderground v.1.15,2015-09-04 16:59:00,
2015-09-04 10:04:00,66.4,48.7,29.81,SSE,150,2.0,9.0,53,0.00,,,0.00,Wunderground v.1.15,2015-09-04 17:04:00,
2015-09-04 10:09:00,66.6,48.9,29.82,South,180,0.0,9.0,53,0.00,,,0.00,Wunderground v.1.15,2015-09-04 17:09:00,
2015-09-04 10:14:00,67.8,49.5,29.82,SSE,161,0.0,6.0,52,0.00,,,0.00,Wunderground v.1.15,2015-09-04 17:14:00,
2015-09-04 10:19:00,67.6,48.8,29.82,South,188,0.0,8.0,51,0.00,,,0.00,Wunderground v.1.15,2015-09-04 17:19:00,
2015-09-04 10:24:00,67.8,49.5,29.82,SSW,202,4.0,7.0,52,0.00,,,0.00,Wunderground v.1.15,2015-09-04 17:24:00,
2015-09-04 10:29:00,67.9,49.1,29.82,South,188,2.0,9.0,51,0.00,,,0.00,Wunderground v.1.15,2015-09-04 17:29:00,
2015-09-04 10:34:00,68.4,49.6,29.82,SE,145,0.0,9.0,51,0.00,,,0.00,Wunderground v.1.15,2015-09-04 17:34:00,
2015-09-04 10:39:00,68.9,48.9,29.82,SSW,192,6.0,10.0,49,0.00,,,0.00,Wunderground v.1.15,2015-09-04 17:39:00,
2015-09-04 10:44:00,68.9,48.9,29.82,South,187,2.0,10.0,49,0.00,,,0.00,Wunderground v.1.15,2015-09-04 17:44:00,
2015-09-04 10:49:00,69.7,49.7,29.81,South,178,0.0,10.0,49,0.00,,,0.00,Wunderground v.1.15,2015-09-04 17:49:00,
2015-09-04 10:54:00,70.1,48.9,29.81,SSW,210,0.0,9.0,47,0.00,,,0.00,Wunderground v.1.15,2015-09-04 17:54:00,
2015-09-04 10:59:00,69.6,48.5,29.82,SSE,161,3.0,10.0,47,0.00,,,0.00,Wunderground v.1.15,2015-09-04 17:59:00,
2015-09-04 11:04:00,69.3,48.8,29.82,South,187,3.0,10.0,48,0.00,,,0.00,Wunderground v.1.15,2015-09-04 18:04:00,
2015-09-04 11:09:00,69.7,48.6,29.82,SSW,198,3.0,10.0,47,0.00,,,0.00,Wunderground v.1.15,2015-09-04 18:09:00,
2015-09-04 11:19:00,70.6,48.8,29.81,SSW,193,0.0,13.0,46,0.00,,,0.00,Wunderground v.1.15,2015-09-04 18:19:00,
2015-09-04 11:24:00,71.4,48.9,29.81,SSW,195,2.0,6.0,45,0.00,,,0.00,Wunderground v.1.15,2015-09-04 18:24:00,
2015-09-04 11:29:00,70.9,48.5,29.81,SSE,168,0.0,9.0,45,0.00,,,0.00,Wunderground v.1.15,2015-09-04 18:29:00,
2015-09-04 11:34:00,71.2,48.2,29.82,South,186,2.0,10.0,44,0.00,,,0.00,Wunderground v.1.15,2015-09-04 18:34:00,
2015-09-04 11:39:00,71.2,49.4,29.81,SE,146,0.0,11.0,46,0.00,,,0.00,Wunderground v.1.15,2015-09-04 18:39:00,
2015-09-04 11:44:00,71.7,48.6,29.81,South,188,2.0,11.0,44,0.00,,,0.00,Wunderground v.1.15,2015-09-04 18:44:00,
2015-09-04 11:49:00,71.8,48.1,29.81,South,180,0.0,11.0,43,0.00,,,0.00,Wunderground v.1.15,2015-09-04 18:49:00,
2015-09-04 11:54:00,72.1,48.4,29.81,SSW,200,2.0,11.0,43,0.00,,,0.00,Wunderground v.1.15,2015-09-04 18:54:00,
2015-09-04 11:59:00,72.4,48.0,29.81,South,184,5.0,11.0,42,0.00,,,0.00,Wunderground v.1.15,2015-09-04 18:59:00,
2015-09-04 12:04:00,72.4,48.0,29.81,South,183,0.0,12.0,42,0.00,,,0.00,Wunderground v.1.15,2015-09-04 19:04:00,
2015-09-04 12:09:00,72.8,47.7,29.81,SW,214,0.0,12.0,41,0.00,,,0.00,Wunderground v.1.15,2015-09-04 19:09:00,
2015-09-04 12:14:00,73.0,47.2,29.81,SSW,195,6.0,9.0,40,0.00,,,0.00,Wunderground v.1.15,2015-09-04 19:14:00,
2015-09-04 12:19:00,73.3,48.2,29.81,SW,219,4.0,9.0,41,0.00,,,0.00,Wunderground v.1.15,2015-09-04 19:19:00,
2015-09-04 12:24:00,73.7,47.9,29.81,SSW,210,0.0,4.0,40,0.00,,,0.00,Wunderground v.1.15,2015-09-04 19:24:00,
2015-09-04 12:29:00,74.4,47.8,29.81,South,189,6.0,7.0,39,0.00,,,0.00,Wunderground v.1.15,2015-09-04 19:29:00,
2015-09-04 12:34:00,73.8,47.3,29.80,SSW,194,2.0,10.0,39,0.00,,,0.00,Wunderground v.1.15,2015-09-04 19:34:00,
2015-09-04 12:44:00,74.3,47.7,29.80,WSW,240,0.0,11.0,39,0.00,,,0.00,Wunderground v.1.15,2015-09-04 19:44:00,
2015-09-04 12:49:00,74.8,46.8,29.80,SE,144,4.0,11.0,37,0.00,,,0.00,Wunderground v.1.15,2015-09-04 19:49:00,
2015-09-04 12:54:00,74.9,47.6,29.80,SSW,207,0.0,12.0,38,0.00,,,0.00,Wunderground v.1.15,2015-09-04 19:54:00,
2015-09-04 12:59:00,75.1,48.4,29.80,SSW,196,1.0,12.0,39,0.00,,,0.00,Wunderground v.1.15,2015-09-04 19:59:00,
2015-09-04 13:04:00,75.7,47.6,29.80,SE,144,10.0,10.0,37,0.00,,,0.00,Wunderground v.1.15,2015-09-04 20:04:00,
2015-09-04 13:09:00,75.4,46.6,29.80,South,180,0.0,12.0,36,0.00,,,0.00,Wunderground v.1.15,2015-09-04 20:09:00,
2015-09-04 13:14:00,76.0,46.4,29.79,SSW,205,0.0,7.0,35,0.00,,,0.00,Wunderground v.1.15,2015-09-04 20:14:00,
2015-09-04 13:19:00,76.2,46.5,29.79,South,171,4.0,10.0,35,0.00,,,0.00,Wunderground v.1.15,2015-09-04 20:19:00,
2015-09-04 13:29:00,77.0,44.0,29.79,SSW,199,5.0,12.0,31,0.00,,,0.00,Wunderground v.1.15,2015-09-04 20:29:00,
2015-09-04 13:34:00,77.0,44.9,29.78,SSE,159,7.0,10.0,32,0.00,,,0.00,Wunderground v.1.15,2015-09-04 20:34:00,
2015-09-04 13:39:00,77.0,44.0,29.78,SSW,196,5.0,14.0,31,0.00,,,0.00,Wunderground v.1.15,2015-09-04 20:39:00,
2015-09-04 13:44:00,76.6,44.5,29.78,South,178,6.0,11.0,32,0.00,,,0.00,Wunderground v.1.15,2015-09-04 20:44:00,
2015-09-04 13:49:00,77.6,45.4,29.79,SSW,213,5.0,11.0,32,0.00,,,0.00,Wunderground v.1.15,2015-09-04 20:49:00,
2015-09-04 13:54:00,78.0,44.0,29.79,SE,136,13.0,13.0,30,0.00,,,0.00,Wunderground v.1.15,2015-09-04 20:54:00,
2015-09-04 13:59:00,77.3,44.3,29.79,SSW,198,1.0,14.0,31,0.00,,,0.00,Wunderground v.1.15,2015-09-04 20:59:00,
2015-09-04 14:04:00,77.9,45.7,29.79,SW,236,0.0,10.0,32,0.00,,,0.00,Wunderground v.1.15,2015-09-04 21:04:00,
2015-09-04 14:09:00,78.2,45.1,29.78,SW,226,4.0,12.0,31,0.00,,,0.00,Wunderground v.1.15,2015-09-04 21:09:00,
2015-09-04 14:14:00,78.2,44.2,29.78,WSW,246,2.0,11.0,30,0.00,,,0.00,Wunderground v.1.15,2015-09-04 21:14:00,
2015-09-04 14:19:00,78.2,45.1,29.78,SW,217,5.0,11.0,31,0.00,,,0.00,Wunderground v.1.15,2015-09-04 21:19:00,
2015-09-04 14:24:00,77.9,43.1,29.78,South,179,9.0,15.0,29,0.00,,,0.00,Wunderground v.1.15,2015-09-04 21:24:00,
2015-09-04 14:29:00,78.0,43.2,29.78,SSE,164,6.0,15.0,29,0.00,,,0.00,Wunderground v.1.15,2015-09-04 21:29:00,
2015-09-04 14:34:00,78.2,44.2,29.77,SW,214,6.0,7.0,30,0.00,,,0.00,Wunderground v.1.15,2015-09-04 21:34:00,
2015-09-04 14:39:00,78.6,45.4,29.77,SSE,164,5.0,11.0,31,0.00,,,0.00,Wunderground v.1.15,2015-09-04 21:39:00,
2015-09-04 14:44:00,79.1,45.9,29.77,SW,222,6.0,10.0,31,0.00,,,0.00,Wunderground v.1.15,2015-09-04 21:44:00,
2015-09-04 14:49:00,79.0,45.8,29.77,South,182,9.0,11.0,31,0.00,,,0.00,Wunderground v.1.15,2015-09-04 21:49:00,
2015-09-04 14:54:00,78.9,43.9,29.77,SSW,205,2.0,11.0,29,0.00,,,0.00,Wunderground v.1.15,2015-09-04 21:54:00,
2015-09-04 15:00:00,79.6,44.5,29.77,SW,230,3.0,3.0,29,0.00,,,0.00,Wunderground v.1.15,2015-09-04 22:00:00,
2015-09-04 15:10:00,79.0,44.0,29.76,SSW,213,5.0,5.0,29,0.00,,,0.00,Wunderground v.1.15,2015-09-04 22:10:00,
2015-09-04 15:15:00,79.2,43.3,29.76,WSW,248,2.0,11.0,28,0.00,,,0.00,Wunderground v.1.15,2015-09-04 22:15:00,
2015-09-04 15:20:00,79.6,41.7,29.76,SSW,194,4.0,6.0,26,0.00,,,0.00,Wunderground v.1.15,2015-09-04 22:20:00,
2015-09-04 15:25:00,79.2,41.3,29.76,SSW,198,2.0,14.0,26,0.00,,,0.00,Wunderground v.1.15,2015-09-04 22:25:00,
2015-09-04 15:30:00,79.5,40.6,29.76,SSW,192,2.0,5.0,25,0.00,,,0.00,Wunderground v.1.15,2015-09-04 22:30:00,
2015-09-04 15:35:00,79.7,39.7,29.76,SE,136,11.0,13.0,24,0.00,,,0.00,Wunderground v.1.15,2015-09-04 22:35:00,
2015-09-04 15:40:00,79.4,38.4,29.76,South,180,2.0,5.0,23,0.00,,,0.00,Wunderground v.1.15,2015-09-04 22:40:00,
2015-09-04 15:45:00,79.8,39.8,29.76,WSW,241,2.0,6.0,24,0.00,,,0.00,Wunderground v.1.15,2015-09-04 22:45:00,
2015-09-04 15:50:00,80.1,37.8,29.76,South,188,4.0,7.0,22,0.00,,,0.00,Wunderground v.1.15,2015-09-04 22:50:00,
2015-09-04 15:55:00,79.9,37.6,29.75,SW,217,6.0,12.0,22,0.00,,,0.00,Wunderground v.1.15,2015-09-04 22:55:00,
2015-09-04 16:00:00,79.7,38.6,29.76,East,92,1.0,4.0,23,0.00,,,0.00,Wunderground v.1.15,2015-09-04 23:00:00,
2015-09-04 16:05:00,80.4,38.1,29.76,South,184,3.0,12.0,22,0.00,,,0.00,Wunderground v.1.15,2015-09-04 23:05:00,
2015-09-04 16:10:00,79.9,35.2,29.76,SSW,194,3.0,9.0,20,0.00,,,0.00,Wunderground v.1.15,2015-09-04 23:10:00,
2015-09-04 16:15:00,80.1,36.6,29.76,SW,229,7.0,10.0,21,0.00,,,0.00,Wunderground v.1.15,2015-09-04 23:15:00,
2015-09-04 16:20:00,80.3,35.6,29.76,SW,223,3.0,9.0,20,0.00,,,0.00,Wunderground v.1.15,2015-09-04 23:20:00,
2015-09-04 16:25:00,80.2,34.2,29.76,SW,225,6.0,12.0,19,0.00,,,0.00,Wunderground v.1.15,2015-09-04 23:25:00,
2015-09-04 16:30:00,80.2,34.2,29.76,SW,217,3.0,6.0,19,0.00,,,0.00,Wunderground v.1.15,2015-09-04 23:30:00,